This is the latest recevied weather packets stored in our database for station/object ZL3GL-4. If no packets are shown the sender has not sent any weather packets the latest 10 day(s).
| Time | Temp. | Humidity | Pressure | Rain* | Wind** | Luminosity | Snow |
|---|---|---|---|---|---|---|---|
| 1777990686 | 6.67° C | 100% | 1021.9 hPa | 0 mm | 0.89 m/s, 281° | - | - |
| 1777989841 | 6.67° C | 100% | 1022 hPa | 0 mm | 0.45 m/s, 302° | - | - |
| 1777989001 | 6.67° C | 100% | 1022.2 hPa | 0 mm | 1.34 m/s, 335° | - | - |
| 1777988155 | 6.67° C | 100% | 1022.2 hPa | 0 mm | 0 m/s | - | - |
| 1777987308 | 6.67° C | 100% | 1022.4 hPa | 0 mm | 0 m/s | - | - |
| 1777986464 | 6.67° C | 100% | 1022.7 hPa | 0 mm | 0.45 m/s, 305° | - | - |
| 1777985619 | 6.67° C | 100% | 1022.9 hPa | 0 mm | 0 m/s | - | - |
| 1777984773 | 7.22° C | 100% | 1023 hPa | 0 mm | 0.45 m/s, 18° | - | - |
| 1777983934 | 7.22° C | 100% | 1023.1 hPa | 0 mm | 0 m/s | - | - |
| 1777983088 | 7.22° C | 100% | 1023.2 hPa | 0 mm | 0 m/s | - | - |
| 1777982242 | 7.22° C | 100% | 1023.4 hPa | 0 mm | 0.45 m/s, 13° | - | - |
| 1777980556 | 7.22° C | 100% | 1023.8 hPa | 0 mm | 0.89 m/s, 339° | - | - |
| 1777979710 | 7.22° C | 100% | 1024 hPa | 0 mm | 0 m/s | - | - |
| 1777978865 | 7.22° C | 100% | 1024.2 hPa | 0 mm | 0 m/s | - | - |
| 1777978021 | 7.22° C | 100% | 1024.4 hPa | 0 mm | 0 m/s | - | - |
| 1777977175 | 7.22° C | 100% | 1024.5 hPa | 0 mm | 0.45 m/s, 60° | - | - |
| 1777976332 | 7.78° C | 100% | 1024.6 hPa | 0 mm | 0 m/s | - | - |
| 1777975487 | 7.78° C | 100% | 1024.7 hPa | 0 mm | 0 m/s | - | - |
| 1777974642 | 7.78° C | 100% | 1024.8 hPa | 0 mm | 0.45 m/s, 288° | - | - |
| 1777973800 | 7.78° C | 100% | 1024.9 hPa | 0 mm | 1.34 m/s, 297° | - | - |
| 1777972956 | 7.78° C | 100% | 1025.2 hPa | 0 mm | 0.45 m/s, 356° | - | - |
| 1777972116 | 7.78° C | 100% | 1025.3 hPa | 0 mm | 0.45 m/s, 284° | - | - |
| 1777971269 | 7.78° C | 100% | 1025.3 hPa | 0 mm | 0.89 m/s, 45° | - | - |
| 1777970426 | 8.33° C | 100% | 1025.3 hPa | 0 mm | 0 m/s | - | - |
| 1777969582 | 8.33° C | 100% | 1025.4 hPa | 0 mm | 0.45 m/s, 37° | - | - |
* Rain latest hour (hover to see other rain measurements)
** Current wind speed in m/s (hover to see current wind gust speed)